Regional Weather Roundup
Issued by NWS Green Bay, WI

Home | Current Version | Previous Version | Graphics & Text | Print | Product List | Glossary Off
Versions: 1 2 3 4 5 6 7 8 9 10 11 12 13 14 15 16 17 18 19 20 21 22 23 24 25 26 27 28 29 30 31 32 33 34 35 36 37 38 39 40 41 42 43 44 45 46 47 48 49 50

000
ASUS43 KGRB 300810
RWRGRB

NORTH-CENTRAL AND NORTHEAST WISCONSIN REGIONAL WEATHER ROUNDUP
NATIONAL WEATHER SERVICE GREEN BAY WI
300 AM CDT TUE SEP 30 2014

WIZ005-009-010>012-018-019-300900-
NORTH CENTRAL WISCONSIN

CITY           SKY/WX    TMP DP  RH WIND       PRES   REMARKS
IRONWOOD       NOT AVBL
MANITOWISH WTR CLOUDY    37  37 100 E6        30.13F
ARBOR VITAE    CLOUDY    39  37  92 NE5       30.13F
EAGLE RIVER    CLOUDY    38  37  98 N5        30.13R
LAND O LAKES   CLOUDY    38  37  98 N8        30.14R FOG
RHINELANDER    CLOUDY    38  36  92 VRB3      30.13S
PHILLIPS       CLOUDY    38  36  92 NE8       30.13F
ANTIGO         CLOUDY    38  36  92 N8G16     30.11S
TOMAHAWK       CLOUDY    38  35  90 N6        30.13F
MERRILL        CLOUDY    39  37  90 NE7       30.13S
$$

WIZ013-073-300900-
NORTHEAST WISCONSIN

CITY           SKY/WX    TMP DP  RH WIND       PRES   REMARKS
IRON MOUNTAIN  CLOUDY    41  37  86 N10       30.10F
MARINETTE      NOT AVBL
OCONTO         CLOUDY    43  39  86 N6        30.11S
$$

WIZ017-030-035>037-045-300900-
CENTRAL WISCONSIN

CITY           SKY/WX    TMP DP  RH WIND       PRES   REMARKS
MEDFORD        CLOUDY    38  36  91 NE5       30.13S
WAUSAU         CLOUDY    40  35  83 E8        30.11S
MOSINEE        CLOUDY    37  36  93 N9        30.13S
MARSHFIELD     CLOUDY    42  37  82 NE7       30.12R
WISC RAPIDS    CLOUDY    43  36  76 NE7       30.13S
STEVENS POINT  CLOUDY    38  35  86 NE6       30.13S
WAUPACA        CLOUDY    44  39  83 N8        30.12S
SHAWANO        CLOUDY    44  39  81 N13G20    30.12S
CLINTONVILLE   CLOUDY    41  37  87 NE10      30.11F
$$

WIZ038-039-048-051-300900-
FOX VALLEY

CITY           SKY/WX    TMP DP  RH WIND       PRES   REMARKS
NWS GREEN BAY  CLOUDY    43  39  86 N14       30.11S
APPLETON       CLOUDY    41  36  81 N12G18    30.11S
OSHKOSH        CLOUDY    44  39  82 N14       30.09F
FOND DU LAC    CLOUDY    44  38  79 NE16      30.10S
$$

WIZ022-050-052-300900-
EAST CENTRAL WISCONSIN

CITY           SKY/WX    TMP DP  RH WIND       PRES   REMARKS
STURGEON BAY   NOT AVBL
MANITOWOC      NOT AVBL
SHEBOYGAN      CLOUDY    44  39  82 N14       30.08
$$

LMZ563-521-522-541>543-300900-
LAKESHORE

STATION/POSITION TIME  TEMP    WIND        PRES    VSBY  WAVE
                       AIR SEA DIR/SP/G                  HT/PER
                 (UTC) (F)     (DEG/KT/KT) (MB)    (MI)  (FT/S)
SHEBOYGAN LKSHOR 0800   46 54  350/ 19/ 22 1019.0F
KEWAUNEE LKSHORE 0800   44     340/  7/ 10 1017.9S
NORTHPORT PIER   0800   46     350/ 17/ 21 1018.6S
N MID LAKE BUOY  0800   47 58  360/ 19/ 25 1017.5F         5/ 5
CHAMBERS ISLAND  0800   45     340/ 20/ 26 1019.0S
MENOMINEE LKSHOR 0800   44     350/ 15/ 19 1019.8F
$$



USA.gov is the U.S. government's official web portal to all federal, state and local government web resources and services.